[[{"header":{"parameterUnit":"m.s-1","parameterCategory":1,"la1":30.2991,"la2":30.254,"lo1":-89.0895,"lo2":-89.0444,"dy":0.0017,"dx":0.0017,"nx":28,"ny":28,"refTime":"2024-06-03T09:00:00:Z","depth":0,"parameterNumber":2,"parameterNumberName":"U-component_of_WINDS"},"data":[0,0,0,0,0,0,0,0,0,0,0,0,0,0,0,0,0,0,0,0,0,0,0,0,0,0,0,0,0,0,0,0,0,0,0,0,0,0,0,0,0,0,0,0,0,0,0,0,0,0,0,0,0,0,0,0,0,0,-1.4045,-1.4046,0,-1.4118,-1.4118,-1.4119,-1.4134,-1.4134,-1.4133,-1.4133,-1.4205,-1.4208,-1.421,0,0,0,0,0,0,0,0,0,0,0,0,0,-1.3919,-1.3921,-1.4045,-1.4046,-1.4047,-1.4117,-1.4118,-1.4119,-1.4135,-1.4134,-1.4133,-1.4133,-1.4204,-1.4207,-1.421,0,0,0,0,0,0,0,0,0,0,0,0,0,-1.398,-1.3922,-1.4045,-1.4063,-1.4065,-1.4117,-1.4118,-1.412,-1.4135,-1.4134,-1.4133,-1.4132,-1.4204,-1.4207,-1.4211,-1.4249,0,0,-1.4222,-1.4223,0,0,0,0,0,0,0,0,-1.3977,-1.3985,-1.4059,-1.4062,-1.4065,-1.4116,-1.41,-1.4163,-1.4135,-1.4108,-1.4133,-1.4132,-1.4176,-1.4182,-1.4197,-1.4253,-1.4256,-1.4222,-1.4224,-1.4226,-1.4227,0,0,0,0,0,0,0,-1.3973,-1.3982,-1.4074,-1.406,-1.4064,-1.4067,-1.4075,-1.4112,-1.4146,-1.4111,-1.4112,-1.412,-1.4177,-1.4194,-1.4199,-1.4257,-1.4222,-1.4225,-1.4227,-1.4229,-1.4347,-1.4348,0,0,0,0,0,0,-1.3965,-1.3978,-1.4071,-1.4076,-1.4018,-1.407,-1.4079,-1.41,-1.4145,-1.4152,-1.4121,-1.4121,-1.4188,-1.4195,-1.4202,-1.425,-1.4226,-1.4229,-1.4231,-1.4346,-1.4347,-1.4348,0,0,0,0,0,0,-1.3963,-1.3974,-1.4068,-1.4028,-1.404,-1.4073,-1.4097,-1.4102,-1.4119,-1.4153,-1.4159,-1.4132,-1.4188,-1.4197,-1.4237,-1.4252,-1.4231,-1.4234,-1.4345,-1.4347,-1.4348,-1.4346,0,0,0,0,0,0,-1.3959,-1.3972,-1.3988,-1.4028,-1.4042,-1.4103,-1.4098,-1.4104,-1.4125,-1.4126,-1.4165,-1.4171,-1.4188,-1.4232,-1.4241,-1.4257,-1.4237,-1.4344,-1.4346,-1.4347,-1.4344,-1.4347,-1.4349,0,0,0,0,0,-1.3954,-1.3984,-1.3988,-1.3999,-1.4062,-1.4104,-1.4112,-1.4132,-1.4126,-1.4142,-1.4164,-1.4169,-1.4249,-1.4236,-1.4246,-1.4264,-1.4343,-1.4345,-1.4347,-1.4344,-1.4346,-1.4349,0,0,0,0,0,0,-1.3944,-1.3989,-1.3995,-1.4038,-1.4067,-1.4107,-1.4127,-1.4134,-1.4165,-1.4164,-1.4187,-1.4195,-1.4235,-1.4253,-1.4237,-1.4303,-1.4296,-1.43,-1.4289,-1.4292,-1.4294,-1.4289,-1.424,0,0,0,0,0,-1.3947,-1.3978,-1.4016,-1.405,-1.4065,-1.4093,-1.4112,-1.4125,-1.4156,-1.4168,-1.4193,-1.4222,-1.4254,-1.4274,-1.4306,-1.4348,-1.4356,-1.4365,-1.4367,-1.4368,-1.4372,-1.4395,-1.4399,-1.4356,-1.4355,-1.4355,0,0,-1.3952,-1.3981,-1.3999,-1.4049,-1.4073,-1.4104,-1.4103,-1.4136,-1.4159,-1.4173,-1.4213,-1.4232,-1.4266,-1.4308,-1.4328,-1.4325,-1.4386,-1.4371,-1.4372,-1.4375,-1.4398,-1.4402,-1.4405,-1.4357,-1.4357,-1.4356,0,0,-1.3979,-1.4004,-1.4036,-1.406,-1.4097,-1.4116,-1.4123,-1.4162,-1.4175,-1.4216,-1.4227,-1.4255,-1.4309,-1.4333,-1.4352,-1.4388,-1.4394,-1.4398,-1.4408,-1.4431,-1.4434,-1.4438,-1.445,-1.4454,-1.4401,-1.4401,-1.4401,0,-1.3982,-1.4029,-1.4051,-1.4084,-1.4105,-1.4119,-1.4151,-1.4173,-1.4218,-1.4232,-1.4229,-1.4297,-1.4321,-1.4368,-1.4377,-1.4393,-1.4402,-1.4393,-1.4432,-1.4436,-1.4439,-1.4451,-1.4456,-1.4401,-1.4401,-1.4401,-1.4401,0,-1.4031,-1.4064,-1.4085,-1.4128,-1.4152,-1.4184,-1.421,-1.4231,-1.4242,-1.4261,-1.4302,-1.4332,-1.4369,-1.4382,-1.4392,-1.443,-1.4427,-1.4428,-1.4421,-1.4443,-1.4455,-1.4459,-1.4401,-1.4401,-1.4401,-1.4401,0,0,-1.4052,-1.4107,-1.4114,-1.4134,-1.4176,-1.4202,-1.4234,-1.4272,-1.4289,-1.432,-1.4347,-1.4394,-1.4394,-1.4416,-1.443,-1.445,-1.4476,-1.4448,-1.4449,-1.4451,-1.4519,-1.4518,-1.4523,-1.4481,-1.4482,-1.4482,-1.4516,0,-1.4083,-1.4142,-1.4163,-1.4212,-1.4242,-1.4257,-1.4285,-1.4313,-1.4332,-1.4361,-1.4381,-1.4413,-1.4412,-1.4426,-1.4446,-1.4468,-1.449,-1.4466,-1.4506,-1.4507,-1.4496,-1.4529,-1.4528,-1.4559,-1.4521,-1.4522,-1.4522,0,-1.4127,-1.4159,-1.4211,-1.4249,-1.4263,-1.4288,-1.4324,-1.4351,-1.4383,-1.4396,-1.442,-1.4433,-1.4467,-1.4458,-1.4506,-1.4489,-1.4507,-1.452,-1.4522,-1.4526,-1.4515,-1.4533,-1.4569,-1.4573,-1.453,-1.4529,-1.4529,0,-1.4137,-1.4193,-1.4231,-1.4248,-1.4293,-1.431,-1.433,-1.4362,-1.4383,-1.4414,-1.4428,-1.4462,-1.4481,-1.4507,-1.4528,-1.4521,-1.4574,-1.4567,-1.4584,-1.4584,-1.4594,-1.4593,-1.4632,-1.4606,-1.4606,-1.4606,-1.4606,0,-1.4169,-1.42,-1.4236,-1.4259,-1.4295,-1.4318,-1.4352,-1.4372,-1.4401,-1.4428,-1.4442,-1.4468,-1.4494,-1.4523,-1.454,-1.4576,-1.4584,-1.4595,-1.4599,-1.4593,-1.4592,-1.4604,-1.4602,-1.4608,-1.4607,-1.4607,-1.4607,0,-1.4186,-1.4211,-1.4253,-1.4293,-1.4304,-1.4328,-1.4362,-1.4385,-1.4405,-1.4439,-1.4449,-1.448,-1.4514,-1.4538,-1.4582,-1.4593,-1.4632,-1.4636,-1.4621,-1.4623,-1.4639,-1.4637,-1.4687,-1.4695,-1.4664,-1.4664,-1.4665,0,-1.4204,-1.4229,-1.4271,-1.4291,-1.4311,-1.4342,-1.4364,-1.4388,-1.441,-1.4449,-1.4467,-1.4503,-1.4532,-1.4587,-1.4613,-1.4646,-1.4651,-1.4666,-1.4656,-1.465,-1.465,-1.4648,-1.4651,-1.4667,-1.4668,-1.4668,-1.4668,0,-1.4235,-1.4246,-1.4277,-1.4313,-1.4338,-1.4367,-1.4396,-1.4412,-1.444,-1.4464,-1.45,-1.4523,-1.4569,-1.4604,-1.464,-1.466,-1.4668,-1.4671,-1.4677,-1.4671,-1.4661,-1.4666,-1.4625,-1.467,-1.467,-1.4669,-1.4669,-1.4669,-1.4253,-1.4275,-1.4308,-1.4343,-1.4367,-1.4394,-1.4418,-1.4441,-1.4471,-1.451,-1.4522,-1.4559,-1.4591,-1.4641,-1.4661,-1.469,-1.4689,-1.4697,-1.4699,-1.4701,-1.47,-1.4657,-1.4697,-1.4697,-1.4697,-1.4697,-1.4697,0,-1.4283,-1.4306,-1.4337,-1.4377,-1.4404,-1.4411,-1.4444,-1.4465,-1.4498,-1.4527,-1.4556,-1.4597,-1.4631,-1.466,-1.4696,-1.4713,-1.4718,-1.4721,-1.472,-1.4724,-1.47,-1.4691,-1.4717,-1.4717,-1.4717,-1.4717,-1.4717,-1.4717,-1.4303,-1.4341,-1.4356,-1.4406,-1.4428,-1.4465,-1.4483,-1.4508,-1.4531,-1.4576,-1.4605,-1.4624,-1.4653,-1.469,-1.4722,-1.4729,-1.4741,-1.4744,-1.4752,-1.4728,-1.4726,-1.4724,-1.4716,-1.4746,-1.4746,-1.4774,-1.4774,-1.4774]},{"header":{"parameterUnit":"m.s-1","parameterCategory":1,"la1":30.2991,"la2":30.254,"lo1":-89.0895,"lo2":-89.0444,"dy":0.0017,"dx":0.0017,"nx":28,"ny":28,"refTime":"2024-06-03T09:00:00:Z","depth":0,"parameterNumber":3,"parameterNumberName":"V-component_of_WINDS"},"data":[0,0,0,0,0,0,0,0,0,0,0,0,0,0,0,0,0,0,0,0,0,0,0,0,0,0,0,0,0,0,0,0,0,0,0,0,0,0,0,0,0,0,0,0,0,0,0,0,0,0,0,0,0,0,0,0,0,0,3.9324,3.9324,0,3.9336,3.9336,3.9336,3.9238,3.9235,3.9232,3.923,3.9241,3.9244,3.9246,0,0,0,0,0,0,0,0,0,0,0,0,0,3.9214,3.9217,3.9324,3.9324,3.9324,3.9336,3.9336,3.9336,3.9238,3.9235,3.9232,3.9228,3.924,3.9243,3.9247,0,0,0,0,0,0,0,0,0,0,0,0,0,3.9248,3.9218,3.9324,3.9277,3.9273,3.9336,3.9336,3.9336,3.9239,3.9235,3.9231,3.9227,3.9239,3.9243,3.9247,3.9356,0,0,3.926,3.9262,0,0,0,0,0,0,0,0,3.9246,3.9252,3.9284,3.928,3.9276,3.9281,3.9301,3.9343,3.924,3.9252,3.923,3.9225,3.9258,3.926,3.9271,3.9356,3.9357,3.9261,3.9263,3.9265,3.9266,0,0,0,0,0,0,0,3.9244,3.9251,3.9329,3.9284,3.9279,3.9254,3.9255,3.9309,3.9278,3.925,3.9243,3.9246,3.9255,3.9267,3.9271,3.9357,3.926,3.9264,3.9267,3.9269,3.953,3.9535,0,0,0,0,0,0,3.9248,3.925,3.9328,3.9329,3.925,3.926,3.926,3.9284,3.9277,3.9272,3.925,3.9241,3.9262,3.9266,3.9271,3.9396,3.9265,3.9269,3.9271,3.9526,3.9531,3.9536,0,0,0,0,0,0,3.9246,3.9256,3.9328,3.9287,3.9295,3.9266,3.9293,3.9286,3.9299,3.9276,3.927,3.9269,3.9259,3.9265,3.9335,3.9395,3.9271,3.9275,3.9521,3.9528,3.9534,3.9649,0,0,0,0,0,0,3.9243,3.9256,3.9297,3.9289,3.9297,3.9393,3.9297,3.9289,3.9306,3.9296,3.9292,3.9288,3.9256,3.9329,3.9339,3.9399,3.9278,3.9515,3.9524,3.9532,3.964,3.9659,3.9675,0,0,0,0,0,3.924,3.933,3.93,3.931,3.9349,3.9397,3.9401,3.9363,3.9312,3.9353,3.9338,3.9288,3.9388,3.9337,3.9348,3.941,3.9511,3.9521,3.9531,3.9632,3.9655,3.9675,0,0,0,0,0,0,3.9345,3.9328,3.9295,3.9385,3.9393,3.938,3.943,3.939,3.9412,3.9402,3.9353,3.9353,3.9432,3.9428,3.9372,3.9514,3.944,3.9453,3.9513,3.9535,3.9552,3.9551,3.9282,0,0,0,0,0,3.9379,3.942,3.9402,3.9483,3.9489,3.946,3.9479,3.9449,3.9456,3.9459,3.9449,3.9457,3.949,3.9512,3.9541,3.9639,3.9636,3.9687,3.9704,3.9719,3.973,3.9779,3.9801,3.9568,3.9568,3.9568,0,0,3.9449,3.9445,3.9474,3.9505,3.9507,3.955,3.9463,3.9512,3.9543,3.9466,3.9531,3.9525,3.953,3.9615,3.9651,3.9614,3.9794,3.9732,3.9743,3.9746,3.9792,3.9814,3.9834,3.9575,3.9574,3.9573,0,0,3.9598,3.96,3.9667,3.9672,3.9677,3.9657,3.9673,3.9666,3.9659,3.9724,3.9667,3.9703,3.9761,3.9766,3.9777,3.9928,3.9882,3.9939,4.0031,4.008,4.0098,4.0114,4.0167,4.0186,3.995,3.9951,3.9951,0,3.9685,3.9747,3.9706,3.9759,3.9774,3.9706,3.9773,3.9779,3.9794,3.9806,3.9764,3.9834,3.9833,3.9917,3.9954,3.9966,3.9981,3.9939,4.0099,4.0115,4.0129,4.0178,4.0198,3.9957,3.9957,3.9956,3.9955,0,3.9852,3.9896,3.995,3.9965,3.9986,4.0046,4.0013,4.0039,4.0008,3.9992,4.0058,4.0055,4.0081,4.0099,4.0069,4.0179,4.0155,4.0108,4.0032,4.0159,4.0204,4.0223,3.9967,3.9965,3.9963,3.9961,0,0,4.0067,4.006,4.008,4.0085,4.0087,4.012,4.0176,4.0202,4.0224,4.0237,4.0282,4.0333,4.0288,4.03,4.027,4.0314,4.0432,4.026,4.0259,4.029,4.055,4.0585,4.0608,4.0402,4.0405,4.0408,4.0549,0,4.0211,4.0307,4.0271,4.0369,4.0408,4.0345,4.0394,4.0399,4.0386,4.0417,4.0402,4.0438,4.0377,4.0383,4.0424,4.0409,4.0483,4.0398,4.0442,4.0444,4.0441,4.0632,4.0669,4.0802,4.0567,4.057,4.0572,0,4.0392,4.0412,4.0513,4.0506,4.0522,4.0566,4.0586,4.0618,4.0622,4.0609,4.0623,4.0584,4.0637,4.0564,4.0636,4.058,4.0595,4.0591,4.0595,4.0596,4.0515,4.0637,4.0844,4.0864,4.06,4.0598,4.0596,0,4.0537,4.0589,4.0656,4.0663,4.0657,4.069,4.0689,4.0689,4.0707,4.0725,4.0736,4.076,4.0773,4.0793,4.076,4.071,4.0837,4.0761,4.0827,4.0828,4.0855,4.0853,4.1066,4.0869,4.0868,4.0868,4.0868,0,4.07,4.0764,4.072,4.0762,4.0831,4.079,4.086,4.0852,4.0853,4.0891,4.0838,4.0875,4.083,4.0863,4.0838,4.0901,4.0908,4.0898,4.089,4.0902,4.0903,4.091,4.09,4.0873,4.0872,4.0871,4.087,0,4.0873,4.0846,4.0915,4.0904,4.0902,4.0954,4.0944,4.0981,4.0964,4.1013,4.1022,4.0995,4.103,4.1,4.1034,4.1017,4.1101,4.1081,4.1099,4.1093,4.1159,4.1153,4.1383,4.1411,4.1197,4.1199,4.1201,0,4.0978,4.1026,4.102,4.1041,4.1044,4.1079,4.1097,4.1058,4.1078,4.1087,4.1123,4.1154,4.1176,4.1235,4.1218,4.1244,4.1223,4.1302,4.1226,4.1236,4.1222,4.1219,4.1223,4.1317,4.1319,4.1321,4.1323,0,4.1167,4.1151,4.1179,4.1202,4.1225,4.1241,4.1253,4.1274,4.1234,4.1259,4.1294,4.1312,4.1346,4.1377,4.1397,4.1395,4.1353,4.1347,4.1363,4.1375,4.1383,4.1378,4.1139,4.1342,4.134,4.1338,4.1337,4.1337,4.1308,4.1347,4.1348,4.1381,4.1386,4.1398,4.1432,4.1419,4.1448,4.1473,4.1448,4.1491,4.1493,4.1516,4.1519,4.1551,4.1518,4.1542,4.1548,4.1554,4.1563,4.1379,4.1555,4.1554,4.1554,4.1553,4.1553,0,4.1493,4.149,4.1521,4.1539,4.1564,4.1522,4.1533,4.1557,4.1595,4.1601,4.1624,4.1664,4.1693,4.1679,4.1705,4.1733,4.1714,4.1741,4.1738,4.1738,4.1592,4.1574,4.1756,4.1756,4.1756,4.1756,4.1756,4.1756,4.1592,4.1655,4.1639,4.1704,4.1701,4.1742,4.1752,4.1763,4.1767,4.1814,4.1839,4.1829,4.1827,4.1852,4.1877,4.1871,4.1883,4.1916,4.1904,4.1768,4.1748,4.1729,4.1712,4.192,4.192,4.2047,4.2048,4.2049]}]]